Flag for Spain Weather past 2 weeks in Las Palmas, Canary Islands, Spain

Now
81 °F

Passing clouds.


Feels Like: 81 °F
Forecast: 74 / 81 °F
Wind: 23 mph from Northeast

Location: Las Palmas De Gran Canaria / Gando

Current Time: Aug 3, 2015 at 2:53:12 PM

Latest Report: Aug 3, 2015 at 2:00 PM


Visibility: N/A

Pressure: 30.09 "Hg

Humidity: 51%

Dew point: 61 °F

Location of Las PalmasLocation

Historic Weather in Las Palmas — Graph

°F

Las Palmas temperature yesterday

Maximum temperature yesterday: 81 °F (at 2:00 PM)
Minimum temperature yesterday: 70 °F (at 5:30 AM)
Average temperature yesterday: 75 °F

Past Weeks' High & Low Weather Summary

 TemperatureHumidityPressure
High88 °F (Jul 23, 2:30 PM)83% (Jul 22, 2:30 AM)30.12 "Hg (Jul 22, 2:30 AM)
Low70 °F (Aug 2, 5:30 AM)27% (Jul 23, 8:00 PM)29.89 "Hg (Jul 21, 6:00 AM)
Average77 °F64%30.00 "Hg
* Reported Jul 19 1:00 PM — Aug 3 1:30 PM, Las Palmas, Weather by CustomWeather, © 2015

Note: Actual official high and low records may vary slightly from our data, if they occured in-between our weather recording intervals... More about our weather records

Advertising

Las Palmas weather history for previous 24 hours

 ConditionsComfort  
Time TempWeatherWind HumidityBarometerVisibility
1:30 PM
Mon, Aug 3
81 °FPassing clouds.23 mph51%30.12 "HgN/A
1:00 PM79 °FScattered clouds.23 mph58%30.12 "HgN/A
12:30 PM81 °FScattered clouds.23 mph51%30.09 "HgN/A
12:00 PM79 °FPassing clouds.24 mph54%30.09 "HgN/A
11:30 AM79 °FScattered clouds.23 mph54%30.09 "HgN/A
11:00 AM79 °FPassing clouds.21 mph54%30.09 "HgN/A
10:30 AM77 °FPartly sunny.21 mph57%30.09 "HgN/A
10:00 AM75 °FScattered clouds.20 mph69%30.09 "HgN/A
9:30 AM75 °FScattered clouds.16 mph61%30.07 "HgN/A
9:00 AM73 °FPartly sunny.16 mph65%30.07 "HgN/A
8:30 AM73 °FScattered clouds.13 mph61%30.07 "HgN/A
8:00 AM73 °FPassing clouds.13 mph57%30.07 "HgN/A
7:30 AM72 °FPassing clouds.10 mph61%30.07 "HgN/A
7:00 AM72 °FPassing clouds.9 mph61%30.07 "HgN/A
6:30 AM72 °FPassing clouds.10 mph65%30.04 "HgN/A
6:00 AM70 °FPassing clouds.12 mph64%30.04 "HgN/A
5:30 AM72 °FPassing clouds.12 mph61%30.04 "HgN/A
5:00 AM72 °FPassing clouds.12 mph65%30.04 "HgN/A
4:30 AM72 °FPassing clouds.12 mph65%30.04 "HgN/A
4:00 AM73 °FPassing clouds.15 mph57%30.04 "HgN/A
3:30 AM73 °FPassing clouds.12 mph61%30.04 "HgN/A
3:00 AM72 °FPassing clouds.12 mph65%30.07 "HgN/A
2:30 AM72 °FPassing clouds.9 mph69%30.07 "HgN/A
2:00 AM72 °FPassing clouds.10 mph69%30.07 "HgN/A
1:30 AM72 °FPassing clouds.8 mph69%30.07 "HgN/A
1:00 AM72 °FPassing clouds.10 mph69%30.09 "HgN/A
12:30 AM72 °FPassing clouds.9 mph69%30.07 "HgN/A
12:00 AM72 °FPassing clouds.10 mph69%30.07 "HgN/A
11:30 PM
Sun, Aug 2
73 °FPassing clouds.9 mph69%30.07 "HgN/A
11:00 PM73 °FPassing clouds.9 mph69%30.07 "HgN/A
10:30 PM73 °FPassing clouds.10 mph69%30.07 "HgN/A
10:00 PM73 °FPassing clouds.10 mph69%30.04 "HgN/A
9:30 PM73 °FPassing clouds.14 mph69%30.04 "HgN/A
9:00 PM73 °FPassing clouds.15 mph69%30.04 "HgN/A
8:30 PM75 °FPassing clouds.18 mph65%30.04 "HgN/A
8:00 PM75 °FPassing clouds.20 mph65%30.01 "HgN/A
7:30 PM77 °FPassing clouds.21 mph61%30.01 "HgN/A
7:00 PM77 °FPassing clouds.20 mph61%30.01 "HgN/A
6:30 PM79 °FScattered clouds.21 mph58%30.01 "HgN/A
6:00 PM79 °FScattered clouds.20 mph54%30.01 "HgN/A
5:30 PM79 °FPartly sunny.17 mph54%30.01 "HgN/A
5:00 PM77 °FPartly sunny.16 mph61%30.01 "HgN/A
4:30 PM77 °FPartly sunny.16 mph61%30.01 "HgN/A
4:00 PM79 °FPartly sunny.17 mph54%30.04 "HgN/A
3:30 PM81 °FPartly sunny.18 mph54%30.01 "HgN/A
3:00 PM81 °FPassing clouds.20 mph58%30.01 "HgN/A
2:30 PM81 °FPassing clouds.20 mph62%30.01 "HgN/A
2:00 PM81 °FPassing clouds.21 mph58%30.01 "HgN/A
Weather by CustomWeather, © 2015

See weather overviewHow to use our weather pages